Waarnemingen

Advertentie
Mijn weer
Nikkaluokta, Zweden (2036): temperatuur & dauwpunt: 17.10.2020 04:00:00 - 23.10.2020 04:00:00 (CEST)Nikkaluokta, Zweden (2036): windsnelheid & windstoten: 17.10.2020 04:00:00 - 23.10.2020 04:00:00 (CEST)Nikkaluokta, Zweden (2036): windrichting: 17.10.2020 04:00:00 - 23.10.2020 04:00:00 (CEST)Nikkaluokta, Zweden (2036): luchtdruk: 17.10.2020 04:00:00 - 23.10.2020 04:00:00 (CEST)Nikkaluokta, Zweden (2036): zicht: 17.10.2020 04:00:00 - 23.10.2020 04:00:00 (CEST)Nikkaluokta, Zweden (2036): neerslag: 17.10.2020 04:00:00 - 23.10.2020 04:00:00 (CEST)
Datum & Tijd tt [°C] td [°C] ff [km/u] ff [kn] fx [km/u] fx [kn] dd ppp [hPa] vv [km] rr [mm]
23.10.2020 04:00:00 -15,3 -17,0 0 0 6 3 N 997,0 50 0,0
23.10.2020 03:00:00 -14,9 -16,3 5 3 10 5 W 997,4 50 0,0
23.10.2020 02:00:00 -16,0 -18,1 8 4 13 7 NW 997,8 25 0,0
23.10.2020 01:00:00 -15,1 -17,2 7 4 13 7 NW 998,1 50 0,0
23.10.2020 00:00:00 -11,5 -12,9 7 4 11 6 W 998,1 50 0,0
22.10.2020 23:00:00 -9,1 -10,4 5 3 9 5 WZW 998,2 50 0,0
22.10.2020 22:00:00 -8,7 -9,9 4 2 8 5 W 998,6 19 0,0
22.10.2020 21:00:00 -9,0 -10,2 6 3 8 4 W 999,1 50 0,0
22.10.2020 20:00:00 -8,0 -9,2 5 3 8 4 WNW 999,4 50 0,0
22.10.2020 19:00:00 -7,4 -8,6 5 3 9 5 W 999,6 50 0,0
22.10.2020 18:00:00 -6,5 -8,2 5 3 6 4 W 999,8 50 0,0
22.10.2020 17:00:00 -6,2 -7,7 3 2 4 2 NW 1000,2 50 0,0
22.10.2020 16:00:00 -5,9 -7,7 0 0 4 2 N 1000,6 50 0,0
22.10.2020 15:00:00 -5,8 -7,8 2 1 5 3 WNW 1001,2 42 0,0
22.10.2020 14:00:00 -5,8 -7,8 2 1 6 4 NNO 1001,7 45 0,0
22.10.2020 13:00:00 -5,9 -8,2 5 3 9 5 ZO 1002,2 25 0,0
22.10.2020 12:00:00 -5,9 -8,3 5 3 10 5 ZZO 1002,6 50 0,0
22.10.2020 11:00:00 -5,9 -8,5 4 2 7 4 Z 1002,9 50 0,0
22.10.2020 10:00:00 -6,1 -8,2 - - 3 2 - 1003,4 - 0,1
22.10.2020 09:00:00 -6,7 -8,1 3 2 4 2 ZZW 1003,8 49 0,1
22.10.2020 08:00:00 -7,0 -8,5 3 2 8 4 OZO 1004,1 12 0,1
22.10.2020 07:00:00 -6,8 -8,6 5 3 14 7 ZO 1004,4 3,9 0,0
22.10.2020 06:00:00 -6,6 -8,4 8 4 13 7 OZO 1004,9 18 0,1
22.10.2020 05:00:00 -6,7 -8,0 3 2 8 5 OZO 1005,6 9 0,2
22.10.2020 04:00:00 -6,4 -7,6 5 3 9 5 ZO 1006,4 2,8 0,3
22.10.2020 03:00:00 -6,5 -7,6 0 0 4 2 N 1007,1 1,6 0,3
22.10.2020 02:00:00 -6,5 -7,6 0 0 3 2 N 1007,6 1,8 0,4
22.10.2020 01:00:00 -6,4 -7,5 0 0 5 3 N 1008,3 0,9 0,5
22.10.2020 00:00:00 -6,5 -7,7 0 0 9 5 N 1008,9 1,1 0,3
21.10.2020 23:00:00 -6,4 -7,6 4 2 8 5 ZO 1009,4 1,6 0,4
21.10.2020 22:00:00 -6,1 -7,2 5 3 14 8 ZO 1010,0 1,8 0,3
21.10.2020 21:00:00 -5,7 -7,1 10 5 24 13 OZO 1010,4 2,9 0,4
21.10.2020 20:00:00 -5,1 -6,2 13 7 24 13 O 1010,6 2,1 0,7
21.10.2020 19:00:00 -4,6 -5,4 18 10 24 13 ONO 1010,7 1,8 0,5
21.10.2020 18:00:00 -4,0 -5,1 13 7 23 12 O 1011,1 10 -
21.10.2020 17:00:00 -3,5 -4,6 9 5 22 12 OZO 1011,3 9 0,0
21.10.2020 16:00:00 -3,4 -5,0 9 5 20 11 OZO 1011,7 38 0,0
21.10.2020 15:00:00 -3,1 -4,5 6 4 16 9 OZO 1011,9 50 0,0
21.10.2020 14:00:00 -3,3 -4,3 4 2 10 5 ZO 1012,4 22 0,0
21.10.2020 13:00:00 -3,4 -4,1 3 1 4 2 WZW 1012,9 7 0,0
21.10.2020 12:00:00 -4,0 -4,7 0 0 5 3 N 1013,5 4,1 0,1
21.10.2020 11:00:00 -4,3 -4,9 4 2 7 4 WZW 1014,0 3,8 0,1
21.10.2020 10:00:00 -4,8 -5,5 3 2 5 3 W 1014,2 2,9 0,1
21.10.2020 09:00:00 -5,4 -6,1 0 0 4 2 N 1014,6 3,0 0,0
21.10.2020 08:00:00 -6,2 -6,9 3 2 4 2 WZW 1014,7 5 0,0
21.10.2020 07:00:00 -6,3 -7,0 3 2 4 2 WZW 1015,1 3,1 0,0
21.10.2020 06:00:00 -6,4 -7,2 3 2 8 4 WZW 1015,5 8 0,0
21.10.2020 05:00:00 -6,5 -7,2 4 2 11 6 W 1015,9 2,9 0,0
21.10.2020 04:00:00 -6,7 -7,4 8 4 11 6 W 1016,5 2,5 0,0
21.10.2020 03:00:00 -7,1 -8,0 6 4 13 7 WZW 1017,1 6 0,0
21.10.2020 02:00:00 -7,6 -8,4 8 4 11 6 W 1017,4 3,5 0,0
21.10.2020 01:00:00 -7,7 -8,5 5 3 10 6 W 1017,8 - 0,0
21.10.2020 00:00:00 -8,0 -8,8 2 1 9 5 WZW 1018,1 1,5 0,0
20.10.2020 23:00:00 -8,7 -10,4 5 3 8 5 WZW 1018,4 50 0,0
20.10.2020 22:00:00 -9,5 -11,0 5 3 7 4 W 1018,6 50 0,0
20.10.2020 21:00:00 -10,1 -11,3 6 3 8 5 NW 1018,9 50 0,0
20.10.2020 20:00:00 -11,9 -13,5 4 2 10 5 WNW 1019,3 50 0,0
20.10.2020 19:00:00 -10,3 -11,2 7 4 9 5 WNW 1019,2 50 0,0
20.10.2020 18:00:00 -11,8 -13,1 5 3 7 4 W 1019,7 50 0,0
20.10.2020 17:00:00 -10,2 -11,9 6 3 8 4 WNW 1019,7 50 0,0
20.10.2020 16:00:00 -7,9 -11,2 5 3 8 4 WZW 1019,6 50 0,0
20.10.2020 15:00:00 -5,2 -8,9 2 1 4 2 ZW 1019,3 50 0,0
20.10.2020 14:00:00 -5,2 -8,4 3 2 5 3 NW 1019,3 50 0,0
20.10.2020 13:00:00 -5,6 -9,3 0 0 5 3 N 1019,4 50 0,0
20.10.2020 12:00:00 -7,0 -9,1 3 1 9 5 NNW 1019,6 50 0,0
20.10.2020 11:00:00 -8,4 -10,0 6 3 9 5 NW 1019,9 50 0,0
20.10.2020 10:00:00 -9,5 -10,7 3 2 5 3 NW 1020,1 50 0,0
20.10.2020 09:00:00 -12,8 -14,4 3 2 6 3 NNW 1020,4 50 0,0
20.10.2020 08:00:00 -13,6 -15,3 5 3 7 4 W 1020,4 50 0,0
20.10.2020 07:00:00 -13,3 -15,1 4 2 11 6 NW 1020,2 50 0,0
20.10.2020 06:00:00 -10,6 -11,6 7 4 11 6 NW 1020,1 50 0,0
20.10.2020 05:00:00 -11,2 -12,3 6 3 8 5 W 1020,1 50 0,0
20.10.2020 04:00:00 -12,7 -14,1 5 3 8 4 W 1020,2 50 0,0
20.10.2020 03:00:00 -12,0 -13,3 4 2 8 4 WZW 1020,1 50 0,0
20.10.2020 02:00:00 -9,2 -10,7 6 3 12 7 W 1019,7 50 0,0
20.10.2020 01:00:00 -8,9 -10,5 8 4 11 6 W 1019,4 50 0,0
20.10.2020 00:00:00 -9,9 -11,7 8 4 10 5 W 1019,4 50 0,0
19.10.2020 23:00:00 -8,5 -10,5 6 3 11 6 W 1019,4 50 0,0
19.10.2020 22:00:00 -7,0 -8,8 5 3 10 5 W 1019,1 50 0,0
19.10.2020 21:00:00 -6,8 -9,2 6 3 8 4 WZW 1019,0 50 0,0
19.10.2020 20:00:00 -4,5 -8,3 0 0 8 4 N 1018,5 50 0,0
19.10.2020 19:00:00 -3,9 -6,8 4 2 9 5 WZW 1018,4 50 0,0
19.10.2020 18:00:00 -2,6 -6,2 5 3 8 5 WZW 1018,1 50 0,0
19.10.2020 17:00:00 -2,4 -6,3 6 3 8 4 W 1018,1 50 0,0
19.10.2020 16:00:00 -1,8 -6,7 3 2 8 5 ZZW 1017,9 50 0,0
19.10.2020 15:00:00 -1,2 -6,3 6 3 16 8 ONO 1017,7 50 0,0
19.10.2020 14:00:00 -1,1 -6,4 8 4 21 11 O 1017,2 50 0,0
19.10.2020 13:00:00 -1,3 -6,1 10 5 27 15 NO 1017,0 50 0,0
19.10.2020 12:00:00 -1,5 -5,9 16 9 39 21 NO 1016,2 50 0,0
19.10.2020 11:00:00 -1,6 -6,5 21 11 36 19 NNO 1015,7 50 0,0
19.10.2020 10:00:00 -1,6 -6,4 18 10 27 15 NO 1015,2 50 0,0
19.10.2020 09:00:00 -1,8 -7,3 8 4 16 9 NNO 1014,9 50 0,0
19.10.2020 08:00:00 -2,9 -7,1 9 5 27 15 NNO 1014,5 50 0,0
19.10.2020 07:00:00 -2,8 -6,4 8 4 39 21 NNO 1014,0 50 0,0
19.10.2020 06:00:00 -2,7 -6,7 19 11 40 22 NNO 1013,6 50 0,0
19.10.2020 05:00:00 -2,8 -7,4 15 8 28 15 NNO 1013,1 50 0,0
19.10.2020 04:00:00 -2,6 -7,9 8 4 22 12 NW 1013,0 50 0,0
19.10.2020 03:00:00 -3,2 -7,5 8 5 33 18 NNO 1012,5 50 0,0
19.10.2020 02:00:00 -3,3 -7,4 15 8 34 18 N 1012,0 50 0,0
19.10.2020 01:00:00 -3,1 -7,1 16 8 40 22 N 1011,5 50 0,0
19.10.2020 00:00:00 -3,0 -7,5 27 15 40 22 NNO 1011,1 50 0,0
18.10.2020 23:00:00 -3,3 -7,6 20 11 44 24 N 1011,0 50 0,0
18.10.2020 22:00:00 -2,9 -7,4 26 14 39 21 N 1010,4 34 0,0
18.10.2020 21:00:00 -3,2 -7,0 15 8 33 18 NNO 1010,4 50 0,0
18.10.2020 20:00:00 -3,1 -7,1 18 10 41 22 NNO 1010,2 50 0,0
18.10.2020 19:00:00 -2,6 -6,8 23 13 43 23 NNO 1009,7 38 0,0
18.10.2020 18:00:00 -2,3 -6,5 23 12 50 27 NNO 1009,5 49 0,0
18.10.2020 17:00:00 -1,9 -6,8 23 12 41 22 NNO 1009,4 50 0,0
18.10.2020 16:00:00 -2,1 -7,0 24 13 48 26 NNO 1009,2 50 0,0
18.10.2020 15:00:00 -2,0 -6,9 24 13 45 25 NNO 1009,0 50 0,0
18.10.2020 14:00:00 -1,8 -6,5 27 15 38 21 NO 1009,1 50 0,0
18.10.2020 13:00:00 -1,9 -6,5 25 13 40 21 NO 1008,9 50 0,0
18.10.2020 12:00:00 -1,6 -7,1 17 9 40 21 NNO 1009,0 50 0,0
18.10.2020 11:00:00 -2,0 -7,1 22 12 36 20 NNO 1009,1 50 0,0
18.10.2020 10:00:00 -2,1 -7,8 23 13 41 22 NNO 1008,8 50 0,0
18.10.2020 09:00:00 -2,5 -7,8 22 12 35 19 NNO 1008,5 50 0,0
18.10.2020 08:00:00 -2,7 -7,0 15 8 34 19 NO 1008,6 50 0,0
18.10.2020 07:00:00 -2,1 -7,0 21 11 39 21 NNO 1008,3 50 0,0
18.10.2020 06:00:00 -2,0 -7,1 18 10 39 21 NNO 1008,4 50 0,0
18.10.2020 05:00:00 -2,2 -7,9 24 13 41 22 NNO 1008,1 50 0,0
18.10.2020 04:00:00 -2,3 -7,2 22 12 42 23 N 1008,0 50 0,0
18.10.2020 03:00:00 -2,7 -7,2 23 12 35 19 NNO 1008,3 50 0,0
18.10.2020 02:00:00 -2,7 -7,4 16 9 38 20 NNO 1008,5 50 0,0
18.10.2020 01:00:00 -3,0 -7,2 9 5 27 15 ONO 1008,7 50 0,0
18.10.2020 00:00:00 -3,0 -7,2 15 8 45 24 N 1007,8 50 0,0
17.10.2020 23:00:00 -3,0 -7,1 23 12 52 28 NNO 1007,5 50 0,0
17.10.2020 22:00:00 -2,7 -7,0 28 15 54 29 NNO 1007,0 50 0,0
17.10.2020 21:00:00 -2,8 -6,4 9 5 45 24 N 1006,7 50 0,0
17.10.2020 20:00:00 -2,6 -4,3 14 8 34 18 NO 1005,8 5 0,2
17.10.2020 19:00:00 -2,9 -4,0 18 10 52 28 N 1005,1 1,3 0,5
17.10.2020 18:00:00 -3,0 -4,0 25 14 49 27 N 1004,4 0,9 0,7
17.10.2020 17:00:00 -2,5 -3,4 21 12 36 20 N 1003,5 0,9 0,4
17.10.2020 16:00:00 -1,5 -4,0 24 13 42 23 N 1002,7 2,8 0,1
17.10.2020 15:00:00 -1,0 -3,8 19 10 37 20 NNO 1002,2 6 0,1
17.10.2020 14:00:00 -0,6 -3,8 16 8 39 21 N 1001,6 16 0,1
17.10.2020 13:00:00 0,2 -1,7 9 5 24 13 NO 1000,8 5 0,5
17.10.2020 12:00:00 1,3 0,1 13 7 19 10 N 999,7 6 0,1
17.10.2020 11:00:00 2,2 0,6 4 2 12 7 O 998,9 46 0,0
17.10.2020 10:00:00 1,6 0,7 7 4 27 14 NNW 998,9 50 0,0
17.10.2020 09:00:00 1,1 0,5 8 5 14 8 NW 999,2 50 0,0
17.10.2020 08:00:00 1,0 0,3 3 2 8 4 ONO 999,1 50 0,0
17.10.2020 07:00:00 1,1 0,5 5 3 12 6 O 999,4 50 0,0
17.10.2020 06:00:00 1,5 0,9 5 3 11 6 W 1000,4 50 0,0
17.10.2020 05:00:00 1,7 1,0 5 3 11 6 NO 1001,3 40 0,1
17.10.2020 04:00:00 2,5 1,0 5 3 19 10 NNW 1002,2 40 0,0

tt = temperatuur
td = dauwpunt
ff = windsnelheid
fx = windstoten
dd = windrichting
ppp = luchtdruk
vv = zicht
rr = neerslag

Weerstations in de omgeving